Time,TemperatureF,DewpointF,PressureIn,WindDirection,WindDirectionDegrees,WindSpeedMPH,WindSpeedGustMPH,Humidity,HourlyPrecipIn,Conditions,Clouds,dailyrainin,SoftwareType,DateUTC
2013-02-16 00:02:00,26.0,17.0,30.43,North,360,0.0,0.0,69,0.00,,,0.00,,2013-02-16 06:02:00,
2013-02-16 00:11:00,26.0,17.0,30.43,North,360,0.0,0.0,69,0.00,,,0.00,,2013-02-16 06:11:00,
2013-02-16 00:21:00,27.0,20.0,30.43,North,356,0.0,0.0,73,0.00,,,0.00,,2013-02-16 06:21:00,
2013-02-16 00:32:00,26.0,18.0,30.43,North,356,0.0,0.0,70,0.00,,,0.00,,2013-02-16 06:32:00,
2013-02-16 00:42:00,26.0,18.0,30.43,North,356,0.0,0.0,70,0.00,,,0.00,,2013-02-16 06:42:00,
2013-02-16 00:51:00,27.0,19.0,30.43,North,356,0.0,0.0,71,0.00,,,0.00,,2013-02-16 06:51:00,
2013-02-16 01:02:00,27.0,19.0,30.44,North,356,0.0,0.0,72,0.00,,,0.00,,2013-02-16 07:02:00,
2013-02-16 01:11:00,27.0,19.0,30.44,North,356,0.0,0.0,72,0.00,,,0.00,,2013-02-16 07:11:00,
2013-02-16 01:21:00,29.0,21.0,30.43,West,279,0.0,3.0,71,0.00,,,0.00,,2013-02-16 07:21:00,
2013-02-16 01:31:00,33.0,25.0,30.44,West,269,1.0,3.0,71,0.00,,,0.00,,2013-02-16 07:31:00,
2013-02-16 01:42:00,33.0,25.0,30.44,West,269,1.0,3.0,71,0.00,,,0.00,,2013-02-16 07:42:00,
2013-02-16 01:52:00,33.0,25.0,30.44,West,279,0.0,2.0,73,0.00,,,0.00,,2013-02-16 07:52:00,
2013-02-16 02:01:00,34.0,27.0,30.44,WNW,285,1.0,3.0,74,0.00,,,0.00,,2013-02-16 08:01:00,
2013-02-16 02:11:00,34.0,27.0,30.44,WNW,285,1.0,3.0,74,0.00,,,0.00,,2013-02-16 08:11:00,
2013-02-16 02:21:00,34.0,26.0,30.44,West,280,1.0,5.0,73,0.00,,,0.00,,2013-02-16 08:21:00,
2013-02-16 02:31:00,33.0,24.0,30.45,WNW,298,6.0,10.0,70,0.00,,,0.00,,2013-02-16 08:31:00,
2013-02-16 02:42:00,33.0,24.0,30.45,WNW,298,6.0,10.0,70,0.00,,,0.00,,2013-02-16 08:42:00,
2013-02-16 02:52:00,31.0,24.0,30.45,NW,309,1.0,9.0,74,0.00,,,0.00,,2013-02-16 08:52:00,
2013-02-16 03:01:00,31.0,24.0,30.45,NNW,341,1.0,5.0,76,0.00,,,0.00,,2013-02-16 09:01:00,
2013-02-16 03:11:00,31.0,24.0,30.45,NNW,341,1.0,5.0,76,0.00,,,0.00,,2013-02-16 09:11:00,
2013-02-16 03:21:00,30.0,24.0,30.45,NNW,337,0.0,4.0,77,0.00,,,0.00,,2013-02-16 09:21:00,
2013-02-16 03:31:00,30.0,24.0,30.46,NW,316,0.0,2.0,77,0.00,,,0.00,,2013-02-16 09:31:00,
2013-02-16 03:42:00,30.0,24.0,30.46,NW,316,0.0,2.0,77,0.00,,,0.00,,2013-02-16 09:42:00,
2013-02-16 03:51:00,29.0,23.0,30.45,NW,315,0.0,1.0,79,0.00,,,0.00,,2013-02-16 09:51:00,
2013-02-16 04:01:00,28.0,23.0,30.46,West,278,0.0,1.0,81,0.00,,,0.00,,2013-02-16 10:01:00,
2013-02-16 04:11:00,28.0,23.0,30.46,West,278,0.0,1.0,81,0.00,,,0.00,,2013-02-16 10:11:00,
2013-02-16 04:21:00,27.0,23.0,30.46,West,278,0.0,0.0,83,0.00,,,0.00,,2013-02-16 10:21:00,
2013-02-16 04:31:00,28.0,21.0,30.45,NW,326,0.0,3.0,76,0.00,,,0.00,,2013-02-16 10:31:00,
2013-02-16 04:42:00,28.0,21.0,30.45,NW,326,0.0,3.0,76,0.00,,,0.00,,2013-02-16 10:42:00,
2013-02-16 04:51:00,28.0,20.0,30.45,West,269,0.0,1.0,71,0.00,,,0.00,,2013-02-16 10:51:00,
2013-02-16 05:02:00,28.0,18.0,30.45,WNW,288,0.0,1.0,67,0.00,,,0.00,,2013-02-16 11:02:00,
2013-02-16 05:11:00,28.0,18.0,30.45,WNW,288,0.0,1.0,67,0.00,,,0.00,,2013-02-16 11:11:00,
2013-02-16 05:22:00,28.0,17.0,30.45,NNW,330,0.0,2.0,64,0.00,,,0.00,,2013-02-16 11:22:00,
2013-02-16 05:32:00,27.0,16.0,30.46,WNW,301,0.0,2.0,64,0.00,,,0.00,,2013-02-16 11:32:00,
2013-02-16 05:42:00,27.0,16.0,30.46,WNW,301,0.0,2.0,64,0.00,,,0.00,,2013-02-16 11:42:00,
2013-02-16 05:52:00,27.0,16.0,30.46,WNW,301,0.0,2.0,64,0.00,,,0.00,,2013-02-16 11:52:00,
2013-02-16 06:01:00,26.0,15.0,30.46,NNE,18,0.0,1.0,62,0.00,,,0.00,,2013-02-16 12:01:00,
2013-02-16 06:12:00,26.0,15.0,30.46,NNE,18,0.0,1.0,62,0.00,,,0.00,,2013-02-16 12:12:00,
2013-02-16 06:22:00,26.0,14.0,30.46,NW,324,0.0,2.0,60,0.00,,,0.00,,2013-02-16 12:22:00,
2013-02-16 06:32:00,26.0,16.0,30.47,NW,315,0.0,0.0,65,0.00,,,0.00,,2013-02-16 12:32:00,
2013-02-16 06:42:00,26.0,16.0,30.47,NW,315,0.0,0.0,65,0.00,,,0.00,,2013-02-16 12:42:00,
2013-02-16 06:52:00,24.0,15.0,30.47,NW,315,0.0,0.0,67,0.00,,,0.00,,2013-02-16 12:52:00,
2013-02-16 07:02:00,23.0,15.0,30.47,West,271,0.0,0.0,70,0.00,,,0.00,,2013-02-16 13:02:00,
2013-02-16 07:12:00,23.0,14.0,30.47,NNW,328,0.0,0.0,69,0.00,,,0.00,,2013-02-16 13:12:00,
2013-02-16 07:21:00,23.0,14.0,30.47,NNW,328,0.0,0.0,69,0.00,,,0.00,,2013-02-16 13:21:00,
2013-02-16 07:31:00,24.0,15.0,30.47,WNW,291,0.0,2.0,68,0.00,,,0.00,,2013-02-16 13:31:00,
2013-02-16 07:41:00,24.0,15.0,30.47,WNW,291,0.0,2.0,68,0.00,,,0.00,,2013-02-16 13:41:00,
2013-02-16 07:51:00,24.0,15.0,30.47,NW,307,0.0,1.0,68,0.00,,,0.00,,2013-02-16 13:51:00,
2013-02-16 08:01:00,24.0,15.0,30.48,WNW,300,0.0,1.0,67,0.00,,,0.00,,2013-02-16 14:01:00,
2013-02-16 08:11:00,24.0,15.0,30.48,WNW,300,0.0,1.0,67,0.00,,,0.00,,2013-02-16 14:11:00,
2013-02-16 08:21:00,25.0,16.0,30.48,West,270,0.0,2.0,69,0.00,,,0.00,,2013-02-16 14:21:00,
2013-02-16 08:32:00,26.0,17.0,30.49,NW,317,0.0,2.0,67,0.00,,,0.00,,2013-02-16 14:32:00,
2013-02-16 08:41:00,26.0,17.0,30.49,NW,317,0.0,2.0,67,0.00,,,0.00,,2013-02-16 14:41:00,
2013-02-16 08:52:00,27.0,16.0,30.50,NNW,334,1.0,5.0,64,0.00,,,0.00,,2013-02-16 14:52:00,
2013-02-16 09:01:00,28.0,16.0,30.50,WSW,257,1.0,3.0,60,0.00,,,0.00,,2013-02-16 15:01:00,
2013-02-16 09:11:00,28.0,16.0,30.50,WSW,257,1.0,3.0,60,0.00,,,0.00,,2013-02-16 15:11:00,
2013-02-16 09:21:00,29.0,17.0,30.50,WNW,283,1.0,3.0,60,0.00,,,0.00,,2013-02-16 15:21:00,
2013-02-16 09:32:00,30.0,17.0,30.50,West,271,3.0,9.0,58,0.00,,,0.00,,2013-02-16 15:32:00,
2013-02-16 09:42:00,30.0,17.0,30.50,West,271,3.0,9.0,58,0.00,,,0.00,,2013-02-16 15:42:00,
2013-02-16 09:51:00,30.0,16.0,30.50,NNE,20,1.0,6.0,56,0.00,,,0.00,,2013-02-16 15:51:00,
2013-02-16 10:01:00,31.0,16.0,30.50,NNW,338,4.0,7.0,54,0.00,,,0.00,,2013-02-16 16:01:00,
2013-02-16 10:11:00,31.0,16.0,30.50,NNW,338,4.0,7.0,54,0.00,,,0.00,,2013-02-16 16:11:00,
2013-02-16 10:21:00,32.0,17.0,30.50,NNE,29,1.0,5.0,53,0.00,,,0.00,,2013-02-16 16:21:00,
2013-02-16 10:32:00,33.0,16.0,30.50,NNW,333,1.0,5.0,50,0.00,,,0.00,,2013-02-16 16:32:00,
2013-02-16 10:41:00,33.0,16.0,30.50,NNW,333,1.0,5.0,50,0.00,,,0.00,,2013-02-16 16:41:00,
2013-02-16 10:51:00,33.0,15.0,30.50,NW,326,1.0,7.0,46,0.00,,,0.00,,2013-02-16 16:51:00,
2013-02-16 11:01:00,34.0,15.0,30.49,NW,316,1.0,3.0,45,0.00,,,0.00,,2013-02-16 17:01:00,
2013-02-16 11:11:00,34.0,15.0,30.49,NW,316,1.0,3.0,45,0.00,,,0.00,,2013-02-16 17:11:00,
2013-02-16 11:21:00,35.0,15.0,30.49,NE,56,1.0,5.0,43,0.00,,,0.00,,2013-02-16 17:21:00,
2013-02-16 11:32:00,36.0,15.0,30.48,West,259,1.0,4.0,41,0.00,,,0.00,,2013-02-16 17:32:00,
2013-02-16 11:42:00,36.0,15.0,30.48,West,259,1.0,4.0,41,0.00,,,0.00,,2013-02-16 17:42:00,
2013-02-16 11:52:00,36.0,15.0,30.48,WSW,254,2.0,4.0,41,0.00,,,0.00,,2013-02-16 17:52:00,
2013-02-16 12:02:00,37.0,14.0,30.47,WNW,287,0.0,3.0,39,0.00,,,0.00,,2013-02-16 18:02:00,
2013-02-16 12:11:00,38.0,13.0,30.46,SSW,205,1.0,4.0,36,0.00,,,0.00,,2013-02-16 18:11:00,
2013-02-16 12:21:00,38.0,13.0,30.46,SSW,205,1.0,4.0,36,0.00,,,0.00,,2013-02-16 18:21:00,
2013-02-16 12:33:00,37.0,11.0,30.45,NW,314,0.0,5.0,33,0.00,,,0.00,,2013-02-16 18:33:00,
2013-02-16 12:42:00,37.0,11.0,30.45,NW,314,0.0,5.0,33,0.00,,,0.00,,2013-02-16 18:42:00,
2013-02-16 12:51:00,38.0,11.0,30.43,SW,225,0.0,3.0,32,0.00,,,0.00,,2013-02-16 18:51:00,
2013-02-16 13:02:00,38.0,11.0,30.42,SE,136,1.0,3.0,32,0.00,,,0.00,,2013-02-16 19:02:00,
2013-02-16 13:11:00,38.0,11.0,30.42,SE,136,1.0,3.0,32,0.00,,,0.00,,2013-02-16 19:11:00,
2013-02-16 13:21:00,39.0,12.0,30.41,SW,224,1.0,4.0,32,0.00,,,0.00,,2013-02-16 19:21:00,
2013-02-16 13:31:00,39.0,11.0,30.40,WNW,283,1.0,3.0,31,0.00,,,0.00,,2013-02-16 19:31:00,
2013-02-16 13:42:00,39.0,11.0,30.40,WNW,283,1.0,3.0,31,0.00,,,0.00,,2013-02-16 19:42:00,
2013-02-16 13:52:00,39.0,10.0,30.39,WNW,286,0.0,4.0,30,0.00,,,0.00,,2013-02-16 19:52:00,
2013-02-16 14:01:00,40.0,11.0,30.37,SE,131,2.0,6.0,30,0.00,,,0.00,,2013-02-16 20:01:00,
2013-02-16 14:11:00,41.0,11.0,30.37,ESE,115,2.0,6.0,29,0.00,,,0.00,,2013-02-16 20:11:00,
2013-02-16 14:21:00,41.0,11.0,30.37,ESE,115,2.0,6.0,29,0.00,,,0.00,,2013-02-16 20:21:00,
2013-02-16 14:32:00,41.0,13.0,30.36,South,178,1.0,7.0,31,0.00,,,0.00,,2013-02-16 20:32:00,
2013-02-16 14:42:00,41.0,13.0,30.36,South,178,1.0,7.0,31,0.00,,,0.00,,2013-02-16 20:42:00,
2013-02-16 14:52:00,41.0,13.0,30.35,SW,214,1.0,6.0,32,0.00,,,0.00,,2013-02-16 20:52:00,
2013-02-16 15:02:00,41.0,13.0,30.34,SE,136,3.0,8.0,31,0.00,,,0.00,,2013-02-16 21:02:00,
2013-02-16 15:11:00,41.0,13.0,30.34,SE,136,3.0,8.0,31,0.00,,,0.00,,2013-02-16 21:11:00,
2013-02-16 15:21:00,41.0,13.0,30.34,SE,136,3.0,8.0,31,0.00,,,0.00,,2013-02-16 21:21:00,
2013-02-16 15:32:00,42.0,14.0,30.32,SE,143,1.0,7.0,31,0.00,,,0.00,,2013-02-16 21:32:00,
2013-02-16 15:42:00,42.0,14.0,30.32,SE,143,1.0,7.0,31,0.00,,,0.00,,2013-02-16 21:42:00,
2013-02-16 15:52:00,42.0,14.0,30.31,South,180,1.0,6.0,31,0.00,,,0.00,,2013-02-16 21:52:00,
2013-02-16 16:01:00,43.0,14.0,30.30,SSE,163,1.0,7.0,30,0.00,,,0.00,,2013-02-16 22:01:00,
2013-02-16 16:11:00,43.0,14.0,30.30,SSE,163,1.0,7.0,30,0.00,,,0.00,,2013-02-16 22:11:00,
2013-02-16 16:21:00,43.0,13.0,30.30,SW,235,3.0,9.0,29,0.00,,,0.00,,2013-02-16 22:21:00,
2013-02-16 16:32:00,43.0,13.0,30.30,SW,235,3.0,9.0,29,0.00,,,0.00,,2013-02-16 22:32:00,
2013-02-16 16:42:00,43.0,13.0,30.30,SW,235,3.0,9.0,29,0.00,,,0.00,,2013-02-16 22:42:00,
2013-02-16 16:51:00,44.0,15.0,30.29,SE,134,2.0,9.0,31,0.00,,,0.00,,2013-02-16 22:51:00,
2013-02-16 17:02:00,44.0,15.0,30.29,SW,225,1.0,7.0,31,0.00,,,0.00,,2013-02-16 23:02:00,
2013-02-16 17:11:00,44.0,15.0,30.29,SW,225,1.0,7.0,31,0.00,,,0.00,,2013-02-16 23:11:00,
2013-02-16 17:21:00,43.0,15.0,30.28,SSE,158,0.0,6.0,32,0.00,,,0.00,,2013-02-16 23:21:00,
2013-02-16 17:31:00,44.0,16.0,30.27,SSW,203,1.0,7.0,32,0.00,,,0.00,,2013-02-16 23:31:00,
2013-02-16 17:42:00,44.0,16.0,30.27,SSW,203,1.0,7.0,32,0.00,,,0.00,,2013-02-16 23:42:00,
2013-02-16 17:52:00,43.0,16.0,30.27,ESE,121,0.0,4.0,33,0.00,,,0.00,,2013-02-16 23:52:00,
2013-02-16 18:02:00,43.0,17.0,30.27,SW,233,0.0,2.0,34,0.00,,,0.00,,2013-02-17 00:02:00,
2013-02-16 18:12:00,43.0,17.0,30.27,SW,233,0.0,2.0,34,0.00,,,0.00,,2013-02-17 00:12:00,
2013-02-16 18:22:00,43.0,17.0,30.26,SSE,153,0.0,3.0,35,0.00,,,0.00,,2013-02-17 00:22:00,
2013-02-16 18:32:00,42.0,17.0,30.26,SE,136,0.0,5.0,36,0.00,,,0.00,,2013-02-17 00:32:00,
2013-02-16 18:41:00,42.0,17.0,30.26,SE,136,0.0,5.0,36,0.00,,,0.00,,2013-02-17 00:41:00,
2013-02-16 18:51:00,41.0,17.0,30.26,East,98,1.0,4.0,38,0.00,,,0.00,,2013-02-17 00:51:00,
2013-02-16 19:01:00,40.0,18.0,30.26,East,97,0.0,3.0,40,0.00,,,0.00,,2013-02-17 01:01:00,
2013-02-16 19:11:00,40.0,18.0,30.26,East,97,0.0,3.0,40,0.00,,,0.00,,2013-02-17 01:11:00,
2013-02-16 19:21:00,39.0,18.0,30.25,SE,134,0.0,2.0,42,0.00,,,0.00,,2013-02-17 01:21:00,
2013-02-16 19:31:00,39.0,18.0,30.25,ESE,108,0.0,4.0,43,0.00,,,0.00,,2013-02-17 01:31:00,
2013-02-16 19:41:00,39.0,18.0,30.25,ESE,108,0.0,4.0,43,0.00,,,0.00,,2013-02-17 01:41:00,
2013-02-16 19:52:00,38.0,18.0,30.24,SE,132,0.0,3.0,44,0.00,,,0.00,,2013-02-17 01:52:00,
2013-02-16 20:01:00,38.0,18.0,30.24,SE,132,0.0,3.0,44,0.00,,,0.00,,2013-02-17 02:01:00,
2013-02-16 20:11:00,38.0,18.0,30.24,SE,132,0.0,3.0,44,0.00,,,0.00,,2013-02-17 02:11:00,
2013-02-16 20:21:00,37.0,18.0,30.24,ESE,103,0.0,3.0,45,0.00,,,0.00,,2013-02-17 02:21:00,
2013-02-16 20:31:00,37.0,18.0,30.24,ESE,120,0.0,4.0,46,0.00,,,0.00,,2013-02-17 02:31:00,
2013-02-16 20:41:00,37.0,18.0,30.24,ESE,120,0.0,4.0,46,0.00,,,0.00,,2013-02-17 02:41:00,
2013-02-16 20:52:00,37.0,19.0,30.24,ESE,103,0.0,3.0,47,0.00,,,0.00,,2013-02-17 02:52:00,
2013-02-16 21:02:00,37.0,18.0,30.23,ESE,122,0.0,4.0,46,0.00,,,0.00,,2013-02-17 03:02:00,
2013-02-16 21:11:00,37.0,18.0,30.23,ESE,122,0.0,4.0,46,0.00,,,0.00,,2013-02-17 03:11:00,
2013-02-16 21:21:00,37.0,19.0,30.23,SW,233,2.0,6.0,47,0.00,,,0.00,,2013-02-17 03:21:00,
2013-02-16 21:31:00,36.0,17.0,30.23,East,94,1.0,7.0,46,0.00,,,0.00,,2013-02-17 03:31:00,
2013-02-16 21:42:00,36.0,17.0,30.23,East,94,1.0,7.0,46,0.00,,,0.00,,2013-02-17 03:42:00,
2013-02-16 21:51:00,36.0,17.0,30.23,ESE,120,0.0,3.0,46,0.00,,,0.00,,2013-02-17 03:51:00,
2013-02-16 22:01:00,36.0,17.0,30.23,ESE,120,0.0,3.0,46,0.00,,,0.00,,2013-02-17 04:01:00,
2013-02-16 22:11:00,36.0,17.0,30.22,South,186,0.0,6.0,46,0.00,,,0.00,,2013-02-17 04:11:00,
2013-02-16 22:21:00,36.0,17.0,30.22,South,186,0.0,6.0,46,0.00,,,0.00,,2013-02-17 04:21:00,
2013-02-16 22:31:00,36.0,18.0,30.22,ESE,105,0.0,4.0,47,0.00,,,0.00,,2013-02-17 04:31:00,
2013-02-16 22:41:00,36.0,18.0,30.22,ESE,105,0.0,4.0,47,0.00,,,0.00,,2013-02-17 04:41:00,
2013-02-16 22:51:00,35.0,17.0,30.22,SSE,156,0.0,4.0,48,0.00,,,0.00,,2013-02-17 04:51:00,
2013-02-16 23:02:00,35.0,17.0,30.22,SSE,156,0.0,4.0,48,0.00,,,0.00,,2013-02-17 05:02:00,
2013-02-16 23:12:00,34.0,18.0,30.20,SSE,156,0.0,1.0,51,0.00,,,0.00,,2013-02-17 05:12:00,
2013-02-16 23:22:00,34.0,18.0,30.20,SSE,156,0.0,1.0,51,0.00,,,0.00,,2013-02-17 05:22:00,
2013-02-16 23:33:00,34.0,19.0,30.20,SSE,166,0.0,3.0,53,0.00,,,0.00,,2013-02-17 05:33:00,
2013-02-16 23:42:00,34.0,19.0,30.20,SSE,166,0.0,3.0,53,0.00,,,0.00,,2013-02-17 05:42:00,
2013-02-16 23:52:00,34.0,19.0,30.19,SE,132,0.0,1.0,54,0.00,,,0.00,,2013-02-17 05:52:00,